Oconto, WI

4:06 PM CST on December 14, 2019 (GMT -0600)
Oconto Municipal

Weather History for KOCQ - October, 2019

Change the Weather History Date:

Sunday, October 13, 2019

  Actual Average Record
Temperature  
Mean Temperature 38 °F -  
Max Temperature 42 °F 57 °F 61 °F (2017)
Min Temperature 34 °F 36 °F 24 °F (2018)
Degree Days  
Heating Degree Days 27    
Moisture  
Dew Point 32 °F    
Average Humidity 80    
Maximum Humidity 92    
Minimum Humidity 66    
Precipitation  
Precipitation 0.00 in - - ()
Sea Level Pressure  
Sea Level Pressure 29.72 in    
Wind  
Wind Speed 10 mph (WSW)    
Max Wind Speed 23 mph    
Max Gust Speed 33 mph    
Visibility 10 miles    
Events      
Averages and records for this station are not official NWS values.
T = Trace of Precipitation, MM = Missing Value Source: NWS Daily Summary

Daily Weather History Graph

Daily Weather History Graph

Search for Another Location

Airport or City:

Astronomy

Oct. 13, 2019 Rise Set
Actual Time 7:04 AM CDT 6:10 PM CDT
Civil Twilight 6:34 AM CDT 6:40 PM CDT
Nautical Twilight 6:00 AM CDT 7:13 PM CDT
Astronomical Twilight 5:26 AM CDT 7:47 PM CDT
Moon 6:35 PM CDT (10/13) 6:34 AM CDT (10/13)
Length of Visible Light 12h 05m
Length of Day
11h 06m
Full, 100% of the Moon is Illuminated
Oct 13
Full
Oct 13
Full
Oct 21
Last Quarter
Oct 27
New
Nov 4
First Quarter

Hourly Weather History & Observations

Time (CDT) Temp. Windchill Dew Point Humidity Pressure Visibility Wind Dir Wind Speed Gust Speed Precip Events Conditions
12:55 AM 36.9 °F 30.1 °F 31.5 °F 81% 29.66 in 10.0 mi SW 9.2 mph - N/A   Overcast
1:15 AM 36.7 °F 29.9 °F 31.5 °F 81% 29.66 in 10.0 mi SW 9.2 mph 17.3 mph N/A   Overcast
1:35 AM 36.5 °F 30.3 °F 31.6 °F 83% 29.66 in 10.0 mi SW 8.1 mph - N/A   Overcast
1:55 AM 36.5 °F 31.8 °F 32.0 °F 84% 29.65 in 10.0 mi SW 5.8 mph - N/A   Overcast
2:15 AM 36.7 °F 29.9 °F 32.0 °F 83% 29.66 in 10.0 mi SW 9.2 mph - N/A   Overcast
2:35 AM 36.9 °F 29.6 °F 32.0 °F 83% 29.66 in 10.0 mi SSW 10.4 mph 17.3 mph N/A   Overcast
2:55 AM 36.9 °F 31.4 °F 32.0 °F 83% 29.66 in 10.0 mi SW 6.9 mph 16.1 mph N/A   Overcast
3:15 AM 36.9 °F 29.6 °F 32.0 °F 83% 29.66 in 10.0 mi SW 10.4 mph - N/A   Overcast
3:35 AM 36.9 °F 31.4 °F 32.0 °F 83% 29.67 in 10.0 mi WSW 6.9 mph - N/A   Overcast
3:55 AM 36.9 °F 29.6 °F 32.0 °F 83% 29.68 in 10.0 mi SW 10.4 mph - N/A   Overcast
4:15 AM 36.9 °F 30.7 °F 32.0 °F 83% 29.68 in 10.0 mi SW 8.1 mph - N/A   Overcast
4:35 AM 36.9 °F 30.7 °F 31.8 °F 82% 29.68 in 10.0 mi SW 8.1 mph - N/A   Overcast
4:55 AM 36.9 °F 30.1 °F 32.0 °F 83% 29.68 in 10.0 mi SW 9.2 mph - N/A   Overcast
5:15 AM 36.9 °F 30.7 °F 32.0 °F 83% 29.68 in 10.0 mi SW 8.1 mph - N/A   Overcast
5:35 AM 36.9 °F 30.1 °F 31.8 °F 82% 29.68 in 10.0 mi SW 9.2 mph - N/A   Overcast
5:55 AM 36.9 °F 31.4 °F 31.8 °F 82% 29.68 in 10.0 mi SW 6.9 mph - N/A   Overcast
6:15 AM 36.7 °F 29.9 °F 31.8 °F 83% 29.69 in 10.0 mi SW 9.2 mph - N/A   Overcast
6:35 AM 36.7 °F 31.2 °F 31.8 °F 83% 29.69 in 10.0 mi SW 6.9 mph - N/A   Overcast
6:55 AM 36.7 °F 29.4 °F 32.0 °F 83% 29.69 in 10.0 mi SW 10.4 mph - N/A   Overcast
7:15 AM 36.7 °F 31.2 °F 31.8 °F 83% 29.69 in 10.0 mi SW 6.9 mph - N/A   Overcast
7:35 AM 36.7 °F 29.9 °F 31.8 °F 83% 29.69 in 10.0 mi SW 9.2 mph - N/A   Overcast
7:55 AM 36.9 °F 30.1 °F 31.8 °F 82% 29.69 in 10.0 mi SW 9.2 mph - N/A   Overcast
8:15 AM 37.0 °F 31.0 °F 31.6 °F 81% 29.69 in 10.0 mi SW 8.1 mph - N/A   Overcast
8:35 AM 37.4 °F 30.3 °F 31.5 °F 79% 29.70 in 10.0 mi WSW 10.4 mph - N/A   Overcast
8:55 AM 37.6 °F 30.5 °F 31.5 °F 79% 29.69 in 10.0 mi WSW 10.4 mph - N/A   Overcast
9:15 AM 37.6 °F 31.0 °F 31.5 °F 79% 29.69 in 10.0 mi SW 9.2 mph - N/A   Overcast
9:35 AM 37.6 °F 30.0 °F 31.1 °F 77% 29.70 in 10.0 mi WSW 11.5 mph - N/A   Overcast
9:55 AM 37.9 °F 30.5 °F 31.1 °F 76% 29.70 in 10.0 mi WSW 11.5 mph - N/A   Overcast
10:15 AM 38.5 °F 29.9 °F 31.1 °F 75% 29.70 in 10.0 mi WSW 15.0 mph - N/A   Overcast
10:35 AM 38.5 °F 30.3 °F 30.9 °F 74% 29.70 in 10.0 mi SW 13.8 mph 19.6 mph N/A   Overcast
10:55 AM 38.7 °F 30.9 °F 31.1 °F 74% 29.70 in 10.0 mi SW 12.7 mph - N/A   Overcast
11:15 AM 38.8 °F 31.6 °F 32.0 °F 76% 29.70 in 10.0 mi WSW 11.5 mph 16.1 mph N/A   Overcast
11:55 AM 39.2 °F 31.2 °F 32.0 °F 75% 29.70 in 10.0 mi WSW 13.8 mph 18.4 mph N/A   Overcast
12:15 PM 39.6 °F 32.5 °F 32.0 °F 74% 29.70 in 10.0 mi WSW 11.5 mph 19.6 mph N/A   Overcast
12:35 PM 40.1 °F 32.0 °F 31.8 °F 72% 29.70 in 10.0 mi WSW 15.0 mph 19.6 mph N/A   Overcast
12:55 PM 41.2 °F 33.4 °F 31.8 °F 69% 29.69 in 10.0 mi WSW 15.0 mph 23.0 mph N/A   Overcast
1:15 PM 41.2 °F 32.4 °F 30.7 °F 66% 29.70 in 10.0 mi West 18.4 mph 25.3 mph N/A   Overcast
1:35 PM 40.3 °F 30.4 °F 32.0 °F 72% 29.71 in 10.0 mi SW 21.9 mph 27.6 mph N/A   Overcast
1:55 PM 38.5 °F 32.1 °F 36.1 °F 91% 29.70 in 10.0 mi WSW 9.2 mph - N/A   Mostly Cloudy
2:15 PM 40.1 °F 35.3 °F 35.8 °F 85% 29.70 in 10.0 mi WSW 6.9 mph - N/A   Mostly Cloudy
2:35 PM 40.5 °F 34.1 °F 35.2 °F 82% 29.70 in 10.0 mi WSW 10.4 mph 17.3 mph N/A   Overcast
2:55 PM 40.6 °F 30.7 °F 34.9 °F 80% 29.71 in 10.0 mi WSW 23.0 mph 33.4 mph N/A   Overcast
3:15 PM 38.8 °F 30.8 °F 33.8 °F 82% 29.71 in 10.0 mi WSW 13.8 mph 18.4 mph N/A   Overcast
3:35 PM 40.1 °F 33.6 °F 34.2 °F 79% 29.71 in 10.0 mi WSW 10.4 mph 17.3 mph N/A   Overcast
3:55 PM 40.3 °F 32.2 °F 33.8 °F 78% 29.72 in 10.0 mi West 15.0 mph 21.9 mph N/A   Overcast
4:15 PM 41.0 °F 33.9 °F 32.7 °F 72% 29.73 in 10.0 mi West 12.7 mph 21.9 mph N/A   Overcast
4:35 PM 41.5 °F 34.2 °F 33.1 °F 72% 29.73 in 10.0 mi West 13.8 mph 20.7 mph N/A   Overcast
4:55 PM 41.5 °F 35.4 °F 32.0 °F 69% 29.73 in 10.0 mi WSW 10.4 mph 20.7 mph N/A   Overcast
5:15 PM 42.1 °F 36.6 °F 31.6 °F 67% 29.74 in 10.0 mi WSW 9.2 mph 18.4 mph N/A   Overcast
5:35 PM 42.4 °F 36.5 °F 31.6 °F 66% 29.74 in 10.0 mi West 10.4 mph - N/A   Overcast
5:55 PM 41.2 °F 35.5 °F 32.4 °F 71% 29.75 in 10.0 mi WSW 9.2 mph - N/A   Mostly Cloudy
6:15 PM 39.7 °F 34.3 °F 32.0 °F 74% 29.76 in 10.0 mi WSW 8.1 mph 18.4 mph N/A   Mostly Cloudy
6:35 PM 38.5 °F 33.4 °F 32.0 °F 78% 29.77 in 10.0 mi WSW 6.9 mph - N/A   Scattered Clouds
6:55 PM 37.9 °F 31.5 °F 32.0 °F 79% 29.78 in 10.0 mi WSW 9.2 mph - N/A   Clear
7:15 PM 37.6 °F 31.0 °F 32.0 °F 80% 29.79 in 10.0 mi WSW 9.2 mph - N/A   Clear
7:35 PM 37.4 °F 30.3 °F 32.0 °F 81% 29.79 in 10.0 mi WSW 10.4 mph - N/A   Clear
7:55 PM 37.2 °F 29.6 °F 32.0 °F 81% 29.80 in 10.0 mi WSW 11.5 mph - N/A   Clear
8:15 PM 37.0 °F 30.4 °F 32.4 °F 83% 29.80 in 10.0 mi WSW 9.2 mph - N/A   Clear
8:35 PM 36.9 °F 29.6 °F 32.4 °F 84% 29.81 in 10.0 mi WSW 10.4 mph - N/A   Clear
8:55 PM 36.5 °F 29.7 °F 32.5 °F 86% 29.81 in 10.0 mi WSW 9.2 mph - N/A   Clear
9:15 PM 36.3 °F 29.5 °F 32.5 °F 86% 29.81 in 10.0 mi West 9.2 mph - N/A   Clear
9:35 PM 36.0 °F 29.0 °F 32.5 °F 87% 29.82 in 10.0 mi WSW 9.2 mph - N/A   Clear
9:55 PM 35.8 °F 28.3 °F 32.5 °F 88% 29.82 in 10.0 mi West 10.4 mph - N/A   Clear
10:15 PM 35.6 °F 28.0 °F 32.4 °F 88% 29.83 in 10.0 mi West 10.4 mph - N/A   Clear
10:35 PM 35.4 °F 29.0 °F 32.2 °F 88% 29.83 in 10.0 mi West 8.1 mph - N/A   Clear
10:55 PM 35.1 °F 30.1 °F 32.0 °F 89% 29.83 in 10.0 mi West 5.8 mph - N/A   Clear
11:15 PM 34.7 °F 29.6 °F 32.0 °F 90% 29.83 in 10.0 mi West 5.8 mph - N/A   Clear
11:35 PM 34.3 °F 27.7 °F 32.0 °F 91% 29.83 in 10.0 mi WSW 8.1 mph - N/A   Clear
11:55 PM 34.0 °F 28.8 °F 32.0 °F 92% 29.84 in 10.0 mi WSW 5.8 mph - N/A   Clear